[[[{"header":{"parameterUnit":"kt","parameterCategory":2,"dx":1,"dy":1,"la1":30.253999710083008,"la2":30.299108505249023,"lo1":-89.0895004272461,"lo2":-89.04439544677734,"nx":28,"ny":28,"refTime":"2022-09-20T15:00:00:Z","depth":0,"parameterNumber":1,"parameterNumberName":"U-component_of_WINDS"},"data":[-2.1628,-2.1733,-2.1718,-2.1831,-2.1837,-2.1912,-2.1935,-2.1962,-2.1979,-2.2068,-2.2116,-2.2112,-2.2124,-2.2179,-2.2231,-2.2228,-2.2253,-2.23,-2.229,-2.2087,-2.2058,-2.203,-2.2005,-2.2305,-2.2305,-2.2503,-2.2505,-2.2507,-2.1481,-2.1488,-2.1542,-2.1586,-2.1633,-2.1578,-2.1608,-2.1652,-2.1721,-2.1743,-2.1789,-2.1866,-2.1925,-2.1921,-2.1975,-2.2025,-2.2003,-2.2041,-2.2039,-2.2043,-2.1824,-2.1798,-2.2058,-2.2058,-2.2057,-2.2057,-2.2057,-2.2057,-2.121,-2.1273,-2.1291,-2.135,-2.1368,-2.1397,-2.1455,-2.1448,-2.1502,-2.1557,-2.1527,-2.1605,-2.1625,-2.1683,-2.1699,-2.176,-2.1716,-2.1753,-2.1763,-2.1774,-2.179,-2.1511,-2.1767,-2.1767,-2.1766,-2.1765,-2.1765,0,-2.1008,-2.0992,-2.1043,-2.1091,-2.1133,-2.1168,-2.1198,-2.1233,-2.1192,-2.1239,-2.1305,-2.1341,-2.1411,-2.1473,-2.152,-2.1528,-2.1479,-2.147,-2.1497,-2.1515,-2.1525,-2.1525,-2.1173,-2.1464,-2.1461,-2.146,-2.1458,-2.1457,-2.0738,-2.0812,-2.0822,-2.0861,-2.0873,-2.0935,-2.097,-2.0928,-2.0966,-2.0997,-2.1055,-2.1115,-2.1161,-2.127,-2.1262,-2.1315,-2.1292,-2.1406,-2.13,-2.1313,-2.1299,-2.1297,-2.1305,-2.1429,-2.1432,-2.1435,-2.1438,0,-2.0587,-2.0562,-2.0672,-2.0675,-2.0678,-2.0759,-2.0761,-2.0822,-2.0809,-2.0892,-2.0908,-2.0888,-2.0954,-2.0927,-2.0997,-2.0982,-2.1117,-2.1091,-2.111,-2.1105,-2.1207,-2.1199,-2.1534,-2.1577,-2.1262,-2.1265,-2.1268,0,-2.0349,-2.0448,-2.0404,-2.047,-2.0579,-2.0534,-2.0643,-2.0642,-2.0658,-2.0723,-2.0659,-2.0722,-2.0677,-2.0736,-2.0713,-2.0818,-2.083,-2.0826,-2.082,-2.0835,-2.0836,-2.0858,-2.0846,-2.0797,-2.0795,-2.0794,-2.0793,0,-2.012,-2.0211,-2.0316,-2.0333,-2.0347,-2.0397,-2.0405,-2.0422,-2.0456,-2.0496,-2.0518,-2.0567,-2.0595,-2.0634,-2.0605,-2.0535,-2.0732,-2.0629,-2.0728,-2.073,-2.0777,-2.0775,-2.1074,-2.0791,-2.079,-2.079,-2.0789,0,-1.9924,-1.9964,-2.0119,-2.0129,-2.0155,-2.0224,-2.027,-2.0322,-2.0345,-2.0335,-2.0366,-2.0322,-2.0408,-2.0309,-2.043,-2.0347,-2.0378,-2.0381,-2.0388,-2.0398,-2.0289,-2.0466,-2.075,-2.0781,-2.0402,-2.0399,-2.0396,0,-1.9671,-1.982,-1.9783,-1.9932,-1.9997,-1.9923,-1.9998,-2.002,-2.0012,-2.0068,-2.0059,-2.0122,-2.0042,-2.0059,-2.0121,-2.0116,-2.0223,-2.01,-2.0185,-2.0189,-2.0186,-2.0445,-2.0497,-2.069,-2.0354,-2.0358,-2.0362,0,-1.9472,-1.9486,-1.9515,-1.9533,-1.9553,-1.9608,-1.9694,-1.9747,-1.9786,-1.9816,-1.9889,-1.9976,-1.992,-1.9948,-1.9917,-1.9984,-2.015,-1.9916,-1.9916,-1.9962,-2.0329,-2.0378,-2.0411,-2.0114,-2.0119,-2.0123,-2.0328,0,-1.9189,-1.9259,-1.9335,-1.9377,-1.9414,-1.9504,-1.9475,-1.9518,-1.9484,-1.9475,-1.958,-1.9591,-1.9646,-1.9674,-1.9642,-1.9802,-1.9773,-1.9712,-1.9617,-1.9786,-1.9854,-1.9881,-1.9519,-1.9516,-1.9514,-1.9512,0,0,-1.8955,-1.9055,-1.9011,-1.9094,-1.9123,-1.9044,-1.9144,-1.9163,-1.9204,-1.9227,-1.9172,-1.9298,-1.931,-1.9442,-1.9492,-1.9513,-1.954,-1.9482,-1.9705,-1.9727,-1.9747,-1.9819,-1.9848,-1.9507,-1.9506,-1.9505,-1.9505,0,-1.8846,-1.8857,-1.8955,-1.8972,-1.8997,-1.8981,-1.9004,-1.9015,-1.9014,-1.9116,-1.9052,-1.9111,-1.9212,-1.9234,-1.9259,-1.9464,-1.9414,-1.9482,-1.9604,-1.9681,-1.9706,-1.9728,-1.9804,-1.9832,-1.9498,-1.9499,-1.9499,0,-1.8648,-1.8655,-1.8698,-1.8759,-1.8774,-1.8843,-1.8735,-1.8812,-1.8863,-1.8775,-1.8878,-1.8881,-1.8907,-1.9034,-1.909,-1.9043,-1.9302,-1.9214,-1.9229,-1.9236,-1.9309,-1.9339,-1.9366,-1.9014,-1.9012,-1.9011,0,0,-1.8558,-1.8623,-1.8618,-1.8733,-1.8747,-1.8725,-1.8759,-1.8729,-1.8753,-1.8763,-1.8766,-1.8792,-1.8851,-1.889,-1.8943,-1.9086,-1.909,-1.9155,-1.9178,-1.9197,-1.9214,-1.9292,-1.9322,-1.9005,-1.9005,-1.9004,0,0,-1.8516,-1.8514,-1.8476,-1.8606,-1.8631,-1.8634,-1.8707,-1.866,-1.8705,-1.8692,-1.8646,-1.8651,-1.8769,-1.8775,-1.8699,-1.891,-1.8815,-1.8833,-1.8903,-1.8931,-1.8953,-1.8951,-1.8592,0,0,0,0,0,-1.8391,-1.8514,-1.8479,-1.8497,-1.8573,-1.8653,-1.8663,-1.8628,-1.8562,-1.862,-1.8615,-1.8558,-1.8724,-1.8656,-1.8674,-1.8761,-1.8928,-1.8942,-1.8955,-1.9078,-1.9108,-1.9133,0,0,0,0,0,0,-1.8397,-1.8418,-1.8476,-1.8485,-1.8502,-1.8648,-1.8529,-1.8523,-1.8555,-1.8542,-1.856,-1.8558,-1.853,-1.8644,-1.8661,-1.8745,-1.8586,-1.8934,-1.8945,-1.8955,-1.9088,-1.9113,-1.9134,0,0,0,0,0,-1.8402,-1.8419,-1.8551,-1.8483,-1.8498,-1.848,-1.8524,-1.8518,-1.8542,-1.8534,-1.853,-1.8513,-1.8534,-1.8546,-1.8654,-1.8737,-1.8573,-1.858,-1.8941,-1.895,-1.8958,-1.91,0,0,0,0,0,0,-1.8406,-1.8415,-1.8553,-1.8556,-1.8434,-1.8472,-1.8476,-1.8514,-1.8531,-1.8529,-1.8484,-1.8474,-1.8537,-1.8546,-1.8556,-1.8737,-1.8563,-1.857,-1.8574,-1.8948,-1.8955,-1.8961,0,0,0,0,0,0,-1.8405,-1.8418,-1.8555,-1.8494,-1.849,-1.8464,-1.8468,-1.8554,-1.8533,-1.848,-1.8472,-1.8479,-1.8523,-1.8547,-1.8554,-1.8691,-1.8556,-1.8562,-1.8567,-1.8569,-1.8954,-1.8959,0,0,0,0,0,0,-1.841,-1.8421,-1.8493,-1.849,-1.8486,-1.8519,-1.8539,-1.862,-1.848,-1.848,-1.8466,-1.846,-1.8526,-1.8532,-1.8554,-1.8688,-1.869,-1.8556,-1.856,-1.8563,-1.8565,0,0,0,0,0,0,0,-1.8414,-1.8348,-1.8534,-1.8487,-1.8483,-1.8586,-1.8587,-1.8588,-1.8478,-1.8473,-1.8468,-1.8463,-1.8519,-1.8526,-1.8533,-1.8685,0,0,-1.8555,-1.8558,0,0,0,0,0,0,0,0,-1.8343,-1.8347,-1.8534,-1.8535,-1.8536,-1.8586,-1.8587,-1.8587,-1.8478,-1.8473,-1.8469,-1.8465,-1.8521,-1.8526,-1.8532,0,0,0,0,0,0,0,0,0,0,0,0,0,0,0,-1.8534,-1.8535,0,-1.8586,-1.8587,-1.8587,-1.8477,-1.8473,-1.847,-1.8466,-1.8522,-1.8527,-1.8532,0,0,0,0,0,0,0,0,0,0,0,0,0,0,0,0,0,0,0,0,0,0,0,0,0,0,0,0,0,0,0,0,0,0,0,0,0,0,0,0,0,0,0,0,0,0,0,0,0,0,0,0,0,0,0,0,0,0,0,0,0,0,0,0,0,0,0,0,0]}],[{"header":{"parameterUnit":"kt","parameterCategory":2,"dx":1,"dy":1,"la1":30.253999710083008,"la2":30.299108505249023,"lo1":-89.0895004272461,"lo2":-89.04439544677734,"nx":28,"ny":28,"refTime":"2022-09-20T15:00:00:Z","depth":0,"parameterNumber":2,"parameterNumberName":"V-component_of_WINDS"},"data":[-7.0977,-7.1153,-7.1169,-7.1375,-7.1424,-7.1567,-7.1622,-7.1694,-7.1755,-7.1924,-7.2022,-7.2053,-7.2116,-7.2234,-7.2339,-7.2349,-7.2392,-7.2444,-7.2447,-7.2206,-7.2173,-7.2142,-7.2103,-7.2453,-7.2454,-7.2694,-7.2696,-7.2698,-7.0799,-7.0851,-7.0965,-7.1086,-7.1183,-7.1143,-7.1234,-7.1317,-7.1444,-7.152,-7.1618,-7.1766,-7.1883,-7.1929,-7.2043,-7.2121,-7.2107,-7.2151,-7.2145,-7.2155,-7.1898,-7.1857,-7.2161,-7.2161,-7.2161,-7.2161,-7.216,-7.216,-7.048,-7.0585,-7.0668,-7.0792,-7.0856,-7.0936,-7.1037,-7.1074,-7.1183,-7.1307,-7.1301,-7.1443,-7.1519,-7.1661,-7.1711,-7.182,-7.1773,-7.1824,-7.1837,-7.185,-7.1863,-7.1514,-7.184,-7.1839,-7.1838,-7.1837,-7.1837,0,-7.0251,-7.0258,-7.0368,-7.0484,-7.0574,-7.0664,-7.0748,-7.081,-7.0824,-7.0913,-7.1042,-7.1118,-7.1267,-7.1388,-7.1497,-7.1538,-7.1501,-7.1499,-7.1534,-7.154,-7.1531,-7.1538,-7.1118,-7.1489,-7.1486,-7.1484,-7.1482,-7.1481,-6.993,-7.0051,-7.0144,-7.0219,-7.0269,-7.039,-7.0464,-7.0467,-7.0545,-7.0646,-7.0736,-7.0858,-7.0956,-7.1157,-7.1193,-7.1303,-7.1285,-7.1426,-7.1301,-7.1302,-7.1287,-7.1281,-7.1292,-7.145,-7.1454,-7.1457,-7.1459,0,-6.9748,-6.9772,-6.9963,-7.0042,-7.0065,-7.019,-7.0256,-7.0358,-7.0381,-7.0525,-7.0558,-7.0593,-7.0717,-7.0731,-7.0875,-7.0878,-7.1078,-7.1059,-7.1053,-7.1049,-7.1176,-7.1164,-7.1586,-7.1641,-7.1278,-7.1281,-7.1284,0,-6.9483,-6.964,-6.9667,-6.9776,-6.995,-6.9949,-7.012,-7.0157,-7.0223,-7.0336,-7.0299,-7.0405,-7.0405,-7.0513,-7.0517,-7.0683,-7.071,-7.0721,-7.0721,-7.0725,-7.0724,-7.0764,-7.0747,-7.0714,-7.0712,-7.071,-7.0708,0,-6.9195,-6.9393,-6.957,-6.9619,-6.9718,-6.98,-6.9845,-6.9918,-6.999,-7.0085,-7.0131,-7.024,-7.03,-7.0384,-7.0389,-7.0304,-7.0592,-7.0476,-7.0604,-7.0604,-7.0666,-7.0662,-7.1033,-7.0706,-7.0705,-7.0704,-7.0704,0,-6.8984,-6.9084,-6.9338,-6.9419,-6.9471,-6.9587,-6.9696,-6.9799,-6.9879,-6.989,-6.9964,-6.994,-7.0087,-6.9971,-7.0172,-7.0061,-7.0121,-7.0145,-7.0155,-7.0168,-7.0038,-7.0246,-7.0598,-7.0635,-7.0181,-7.0177,-7.0173,0,-6.8647,-6.891,-6.8912,-6.9152,-6.9275,-6.9226,-6.9354,-6.9427,-6.9453,-6.9558,-6.9585,-6.9704,-6.9621,-6.966,-6.9758,-6.9789,-6.9934,-6.977,-6.9918,-6.9923,-6.9899,-7.0224,-7.0273,-7.0519,-7.0117,-7.0123,-7.0127,0,-6.8389,-6.851,-6.8553,-6.8608,-6.8706,-6.8808,-6.8956,-6.9075,-6.9146,-6.9231,-6.9353,-6.9521,-6.9465,-6.9529,-6.952,-6.9622,-6.9836,-6.9547,-6.9549,-6.9599,-7.009,-7.0136,-7.0178,-6.9807,-6.9814,-6.9819,-7.0083,0,-6.8065,-6.8199,-6.8316,-6.8439,-6.852,-6.8672,-6.8689,-6.8771,-6.8756,-6.878,-6.8959,-6.902,-6.9139,-6.9189,-6.9174,-6.9402,-6.9366,-6.9304,-6.9192,-6.9404,-6.9492,-6.9527,-6.9061,-6.9057,-6.9055,-6.9052,0,0,-6.7736,-6.7929,-6.7926,-6.8071,-6.8139,-6.8086,-6.8245,-6.8305,-6.8426,-6.8473,-6.8411,-6.8657,-6.8709,-6.8925,-6.8992,-6.904,-6.9082,-6.9007,-6.9303,-6.9331,-6.9357,-6.945,-6.9487,-6.9048,-6.9047,-6.9046,-6.9045,0,-6.7621,-6.7682,-6.7841,-6.7904,-6.7996,-6.8014,-6.8052,-6.8133,-6.8155,-6.8332,-6.8282,-6.8391,-6.8587,-6.8649,-6.8706,-6.8982,-6.8937,-6.9016,-6.916,-6.9275,-6.9307,-6.9335,-6.9433,-6.9468,-6.9038,-6.9038,-6.9039,0,-6.737,-6.7432,-6.7511,-6.7665,-6.7725,-6.7852,-6.7739,-6.7878,-6.7972,-6.7902,-6.8078,-6.8114,-6.8197,-6.8399,-6.8489,-6.8435,-6.8804,-6.869,-6.8707,-6.8717,-6.883,-6.8867,-6.8901,-6.8456,-6.8454,-6.8452,0,0,-6.7268,-6.7393,-6.7459,-6.7642,-6.7683,-6.7712,-6.778,-6.7772,-6.7851,-6.7882,-6.7928,-6.8003,-6.8117,-6.8192,-6.8299,-6.8518,-6.8534,-6.8618,-6.8645,-6.8668,-6.869,-6.8808,-6.8845,-6.8445,-6.8444,-6.8444,0,0,-6.7218,-6.7303,-6.7275,-6.749,-6.7568,-6.7642,-6.7752,-6.7718,-6.7817,-6.7801,-6.7791,-6.7811,-6.7999,-6.8036,-6.7929,-6.8259,-6.8147,-6.8173,-6.8228,-6.8263,-6.829,-6.8277,-6.782,0,0,0,0,0,-6.7111,-6.7293,-6.7266,-6.7305,-6.7499,-6.7657,-6.7682,-6.768,-6.7601,-6.7689,-6.7721,-6.7668,-6.7976,-6.7882,-6.7919,-6.8037,-6.8344,-6.8361,-6.8378,-6.8501,-6.8538,-6.8568,0,0,0,0,0,0,-6.7126,-6.7173,-6.7261,-6.7344,-6.7387,-6.7651,-6.7518,-6.7522,-6.7592,-6.758,-6.7664,-6.7671,-6.767,-6.7863,-6.7896,-6.8009,-6.7809,-6.8351,-6.8366,-6.8379,-6.8514,-6.8543,-6.8569,0,0,0,0,0,-6.7138,-6.7176,-6.7488,-6.7341,-6.7379,-6.742,-6.7511,-6.7513,-6.7567,-6.7617,-6.7623,-6.7559,-6.7673,-6.7701,-6.7882,-6.7994,-6.7786,-6.7798,-6.836,-6.8372,-6.8383,-6.8528,0,0,0,0,0,0,-6.7147,-6.7178,-6.7495,-6.7507,-6.7273,-6.7405,-6.7426,-6.7506,-6.76,-6.7607,-6.7511,-6.75,-6.7678,-6.7698,-6.772,-6.7989,-6.7767,-6.778,-6.7788,-6.837,-6.8379,-6.8387,0,0,0,0,0,0,-6.7158,-6.7188,-6.7501,-6.7415,-6.7416,-6.7391,-6.741,-6.7563,-6.7601,-6.7488,-6.7482,-6.7505,-6.7644,-6.7698,-6.7714,-6.7953,-6.7753,-6.7765,-6.7773,-6.7778,-6.8377,-6.8385,0,0,0,0,0,0,-6.717,-6.7197,-6.7412,-6.7413,-6.7414,-6.754,-6.7526,-6.7723,-6.7531,-6.7484,-6.7513,-6.7505,-6.7645,-6.7661,-6.7711,-6.7943,-6.795,-6.7753,-6.7761,-6.7767,-6.7771,0,0,0,0,0,0,0,-6.7181,-6.7006,-6.7429,-6.7411,-6.7412,-6.7611,-6.7614,-6.7617,-6.7529,-6.7522,-6.7515,-6.7508,-6.7684,-6.7697,-6.771,-6.7935,0,0,-6.7752,-6.7758,0,0,0,0,0,0,0,0,-6.6995,-6.7003,-6.7429,-6.7432,-6.7434,-6.7612,-6.7614,-6.7616,-6.7528,-6.7522,-6.7516,-6.7511,-6.7687,-6.7698,-6.7709,0,0,0,0,0,0,0,0,0,0,0,0,0,0,0,-6.743,-6.7432,0,-6.7612,-6.7614,-6.7616,-6.7527,-6.7522,-6.7518,-6.7513,-6.769,-6.7699,-6.7708,0,0,0,0,0,0,0,0,0,0,0,0,0,0,0,0,0,0,0,0,0,0,0,0,0,0,0,0,0,0,0,0,0,0,0,0,0,0,0,0,0,0,0,0,0,0,0,0,0,0,0,0,0,0,0,0,0,0,0,0,0,0,0,0,0,0,0,0,0]}]]]